When you browse on this site, cookies collect data to enhance your experience and personalize the content and advertising you see.
Visit our Privacy Policy to learn more. By continuing to use the site, you agree to this use of cookies and data.

Meteo orario Borisovskie Vyselki

Oggi, 9 Luglio, Giovedi

Tempo Temperatura Precipitazioni Vento Pressione Umidità
00:00 +19°C° 1.2 mm 2 m/s 735 mm Hg 96%
01:00 +18°C° 1.3 mm 3 m/s 735 mm Hg 96%
02:00 +18°C° 1.3 mm 4 m/s 736 mm Hg 96%
03:00 +17°C° 1.3 mm 4 m/s 736 mm Hg 96%
04:00 +15°C° 1 mm 5 m/s 736 mm Hg 96%
05:00 +15°C° 1 mm 5 m/s 736 mm Hg 95%
06:00 +14°C° 1 mm 5 m/s 737 mm Hg 95%
07:00 +14°C° 0 mm 5 m/s 737 mm Hg 93%
08:00 +14°C° 0 mm 6 m/s 738 mm Hg 91%
09:00 +15°C° 0 mm 6 m/s 738 mm Hg 88%
10:00 +16°C° 0 mm 6 m/s 739 mm Hg 84%
11:00 +17°C° 0 mm 5 m/s 739 mm Hg 79%
12:00 +19°C° 0 mm 5 m/s 740 mm Hg 75%
13:00 +20°C° 0 mm 5 m/s 740 mm Hg 73%
14:00 +20°C° 0 mm 5 m/s 740 mm Hg 71%
15:00 +21°C° 0 mm 5 m/s 740 mm Hg 68%
16:00 +21°C° 0 mm 4 m/s 740 mm Hg 70%
17:00 +21°C° 0 mm 4 m/s 740 mm Hg 72%
18:00 +21°C° 0 mm 3 m/s 740 mm Hg 73%
19:00 +19°C° 0 mm 3 m/s 741 mm Hg 78%
20:00 +17°C° 0 mm 3 m/s 741 mm Hg 82%
21:00 +16°C° 0 mm 3 m/s 741 mm Hg 87%
22:00 +14°C° 0 mm 3 m/s 742 mm Hg 88%
23:00 +14°C° 0 mm 3 m/s 742 mm Hg 89%

Domani, 10 Luglio, Venerdi

Tempo Temperatura Precipitazioni Vento Pressione Umidità
00:00 +13°C° 0 mm 3 m/s 742 mm Hg 90%
01:00 +13°C° 0 mm 3 m/s 743 mm Hg 91%
02:00 +12°C° 0 mm 3 m/s 743 mm Hg 92%
03:00 +11°C° 0 mm 3 m/s 743 mm Hg 93%
04:00 +12°C° 0 mm 3 m/s 743 mm Hg 92%
05:00 +12°C° 0 mm 3 m/s 744 mm Hg 91%
06:00 +12°C° 0 mm 3 m/s 744 mm Hg 90%
07:00 +14°C° 0 mm 3 m/s 744 mm Hg 84%
08:00 +16°C° 0 mm 3 m/s 745 mm Hg 79%
09:00 +18°C° 0 mm 3 m/s 745 mm Hg 74%
10:00 +19°C° 0 mm 3 m/s 745 mm Hg 69%
11:00 +20°C° 0 mm 3 m/s 745 mm Hg 65%
12:00 +20°C° 0 mm 3 m/s 746 mm Hg 60%
13:00 +21°C° 0 mm 3 m/s 746 mm Hg 60%
14:00 +21°C° 0 mm 3 m/s 746 mm Hg 59%
15:00 +21°C° 0 mm 3 m/s 746 mm Hg 58%
16:00 +21°C° 0 mm 3 m/s 746 mm Hg 61%
17:00 +21°C° 0 mm 2 m/s 746 mm Hg 63%
18:00 +21°C° 0 mm 2 m/s 746 mm Hg 66%
19:00 +20°C° 0 mm 1 m/s 746 mm Hg 70%
20:00 +18°C° 0 mm 1 m/s 746 mm Hg 74%
21:00 +15°C° 0 mm 0 m/s 746 mm Hg 77%
22:00 +15°C° 0 mm 1 m/s 746 mm Hg 79%
23:00 +15°C° 0 mm 1 m/s 746 mm Hg 80%

Dopodomani, 11 Luglio, Sabato

Tempo Temperatura Precipitazioni Vento Pressione Umidità
00:00 +15°C° 0 mm 1 m/s 747 mm Hg 81%
01:00 +14°C° 0 mm 1 m/s 747 mm Hg 82%
02:00 +14°C° 0 mm 1 m/s 747 mm Hg 84%
03:00 +14°C° 0 mm 2 m/s 747 mm Hg 85%
04:00 +14°C° 0 mm 2 m/s 747 mm Hg 85%
05:00 +15°C° 0 mm 2 m/s 747 mm Hg 85%
06:00 +15°C° 0 mm 2 m/s 747 mm Hg 85%
07:00 +17°C° 0 mm 2 m/s 747 mm Hg 81%
08:00 +19°C° 0 mm 2 m/s 747 mm Hg 76%
09:00 +20°C° 0 mm 2 m/s 748 mm Hg 71%
10:00 +21°C° 0 mm 2 m/s 747 mm Hg 67%
11:00 +23°C° 0 mm 2 m/s 747 mm Hg 64%
12:00 +24°C° 0 mm 2 m/s 747 mm Hg 60%
13:00 +25°C° 0 mm 2 m/s 747 mm Hg 59%
14:00 +25°C° 0 mm 2 m/s 747 mm Hg 58%
15:00 +25°C° 0 mm 1 m/s 747 mm Hg 57%
16:00 +25°C° 0 mm 1 m/s 746 mm Hg 59%
17:00 +25°C° 0 mm 1 m/s 746 mm Hg 61%
18:00 +25°C° 0 mm 1 m/s 746 mm Hg 62%
19:00 +23°C° 0 mm 1 m/s 746 mm Hg 66%
20:00 +22°C° 0 mm 1 m/s 746 mm Hg 70%
21:00 +20°C° 0 mm 1 m/s 746 mm Hg 73%
22:00 +19°C° 0 mm 1 m/s 746 mm Hg 74%
23:00 +19°C° 0 mm 1 m/s 746 mm Hg 75%

12 Luglio, Domenica

Tempo Temperatura Precipitazioni Vento Pressione Umidità
00:00 +18°C° 0 mm 1 m/s 746 mm Hg 76%
01:00 +18°C° 0 mm 1 m/s 746 mm Hg 76%
02:00 +16°C° 0 mm 1 m/s 745 mm Hg 76%
03:00 +16°C° 0 mm 1 m/s 745 mm Hg 76%
04:00 +16°C° 0 mm 1 m/s 745 mm Hg 77%
05:00 +18°C° 0 mm 1 m/s 745 mm Hg 78%
06:00 +18°C° 0 mm 1 m/s 744 mm Hg 79%
07:00 +19°C° 0 mm 1 m/s 744 mm Hg 74%
08:00 +21°C° 0 mm 1 m/s 744 mm Hg 70%
09:00 +23°C° 0 mm 1 m/s 744 mm Hg 66%
10:00 +24°C° 0 mm 2 m/s 744 mm Hg 63%
11:00 +25°C° 0 mm 2 m/s 744 mm Hg 60%
12:00 +26°C° 0 mm 2 m/s 744 mm Hg 58%
13:00 +26°C° 0 mm 2 m/s 743 mm Hg 59%
14:00 +27°C° 0 mm 2 m/s 743 mm Hg 60%
15:00 +27°C° 0 mm 3 m/s 743 mm Hg 62%
16:00 +27°C° 0 mm 3 m/s 742 mm Hg 66%
17:00 +27°C° 0 mm 3 m/s 741 mm Hg 70%
18:00 +27°C° 0 mm 3 m/s 741 mm Hg 74%
19:00 +26°C° 0.5 mm 3 m/s 741 mm Hg 80%
20:00 +24°C° 0.5 mm 3 m/s 740 mm Hg 86%
21:00 +22°C° 0.5 mm 3 m/s 740 mm Hg 92%
22:00 +21°C° 0.6 mm 3 m/s 740 mm Hg 93%
23:00 +21°C° 0.6 mm 3 m/s 739 mm Hg 94%

13 Luglio, Lunedi

Tempo Temperatura Precipitazioni Vento Pressione Umidità
00:00 +20°C° 0.6 mm 3 m/s 739 mm Hg 95%
01:00 +20°C° 0.1 mm 3 m/s 739 mm Hg 94%
02:00 +20°C° 0.1 mm 2 m/s 738 mm Hg 94%
03:00 +20°C° 0.1 mm 2 m/s 738 mm Hg 93%
04:00 +20°C° 0.1 mm 3 m/s 738 mm Hg 93%
05:00 +20°C° 0.1 mm 3 m/s 737 mm Hg 93%
06:00 +20°C° 0.1 mm 4 m/s 737 mm Hg 92%
07:00 +21°C° 0 mm 4 m/s 737 mm Hg 90%
08:00 +22°C° 0 mm 4 m/s 737 mm Hg 88%
09:00 +23°C° 0 mm 4 m/s 736 mm Hg 85%
10:00 +25°C° 0.4 mm 4 m/s 736 mm Hg 82%
11:00 +26°C° 0.4 mm 5 m/s 736 mm Hg 78%
12:00 +27°C° 0.4 mm 5 m/s 736 mm Hg 75%
13:00 +27°C° 1.9 mm 5 m/s 735 mm Hg 77%
14:00 +26°C° 1.9 mm 5 m/s 735 mm Hg 78%
15:00 +24°C° 1.9 mm 6 m/s 734 mm Hg 80%
16:00 +25°C° 2 mm 5 m/s 734 mm Hg 82%
17:00 +23°C° 2 mm 4 m/s 733 mm Hg 84%
18:00 +22°C° 2 mm 3 m/s 733 mm Hg 86%
19:00 +22°C° 1.5 mm 3 m/s 733 mm Hg 88%
20:00 +21°C° 1.5 mm 3 m/s 733 mm Hg 91%
21:00 +20°C° 1.5 mm 3 m/s 732 mm Hg 93%
22:00 +20°C° 0.5 mm 3 m/s 732 mm Hg 93%
23:00 +20°C° 0.5 mm 3 m/s 732 mm Hg 94%

14 Luglio, Martedi

Tempo Temperatura Precipitazioni Vento Pressione Umidità
00:00 +20°C° 0.5 mm 3 m/s 732 mm Hg 94%
01:00 +19°C° 0.4 mm 4 m/s 732 mm Hg 95%
02:00 +19°C° 0.4 mm 5 m/s 732 mm Hg 95%
03:00 +19°C° 0.4 mm 6 m/s 732 mm Hg 96%
04:00 +19°C° 0 mm 5 m/s 732 mm Hg 95%
05:00 +17°C° 0 mm 5 m/s 733 mm Hg 94%
06:00 +17°C° 0 mm 5 m/s 733 mm Hg 93%
07:00 +17°C° 0 mm 5 m/s 733 mm Hg 93%
08:00 +16°C° 0 mm 5 m/s 734 mm Hg 92%
09:00 +16°C° 0 mm 5 m/s 734 mm Hg 92%
10:00 +16°C° 0 mm 5 m/s 734 mm Hg 89%
11:00 +16°C° 0 mm 6 m/s 735 mm Hg 87%
12:00 +17°C° 0 mm 6 m/s 735 mm Hg 84%
13:00 +17°C° 0.1 mm 6 m/s 735 mm Hg 82%
14:00 +17°C° 0.1 mm 6 m/s 736 mm Hg 80%
15:00 +17°C° 0.1 mm 7 m/s 736 mm Hg 78%
16:00 +17°C° 0.1 mm 7 m/s 736 mm Hg 78%
17:00 +17°C° 0.1 mm 7 m/s 736 mm Hg 79%
18:00 +17°C° 0.1 mm 7 m/s 736 mm Hg 79%
19:00 +16°C° 0 mm 6 m/s 736 mm Hg 80%
20:00 +15°C° 0 mm 6 m/s 736 mm Hg 81%
21:00 +14°C° 0 mm 5 m/s 736 mm Hg 82%
22:00 +13°C° 0 mm 5 m/s 736 mm Hg 83%
23:00 +13°C° 0 mm 5 m/s 736 mm Hg 85%
Mostrare altro